Theta_e
306 304 302 308 316 316 321 324 325 324 329 331 333 340 347 357 360 362 359 356 362 363 363 364 362 361 361 362 362 362 362 360
303 302 306 310 317 320 319 322 326 325 323 336 347 344 350 357 360 359 355 353 362 363 363 363 363 362 362 362 362 362 361 359
301 302 307 311 315 320 318 320 323 326 324 335 347 353 355 357 358 357 352 354 359 362 362 362 363 362 361 361 361 360 359 357
299 303 307 310 314 317 318 320 321 324 325 337 351 353 355 357 357 354 351 355 356 361 361 361 361 361 360 360 360 360 359 358
303 304 306 309 313 313 316 319 319 326 323 337 346 354 357 357 357 352 352 350 351 353 358 360 360 360 360 359 359 359 358 357
304 303 304 311 312 314 315 316 325 326 319 329 342 353 356 357 354 352 352 348 347 348 348 351 355 359 359 359 358 358 357 357
303 304 306 312 310 314 317 316 322 323 323 344 349 353 353 353 352 351 349 348 347 345 345 344 346 355 357 357 357 357 355 355
309 310 309 311 310 311 312 313 316 320 328 347 349 351 348 348 349 349 348 347 346 346 346 343 342 348 347 349 348 349 350 350
308 311 312 310 310 311 310 309 315 317 323 341 346 348 348 348 349 350 350 347 346 351 351 345 344 343 345 347 348 351 354 352
307 310 310 308 311 309 310 311 314 317 321 336 343 343 348 348 349 349 350 348 349 351 355 354 348 344 346 343 346 348 349 353
309 309 309 309 307 308 309 314 317 320 325 332 339 342 345 349 350 350 349 349 349 354 356 361 357 349 348 348 347 349 351 352
309 308 308 306 307 308 310 314 316 316 317 334 341 342 346 348 349 352 354 353 352 353 361 355 359 361 353 353 353 351 351 352
304 308 307 308 303 305 311 313 312 314 316 319 339 343 345 349 351 352 353 355 358 358 357 360 357 357 356 354 353 352 352 356
302 305 307 307 300 307 312 311 311 313 315 317 326 341 346 350 353 355 354 358 358 354 355 357 360 358 355 354 352 352 351 352
297 305 304 305 301 308 312 311 311 312 314 315 326 336 348 352 354 354 355 357 358 358 355 357 362 358 358 360 353 349 347 348
295 300 303 301 303 308 311 311 310 312 313 315 318 338 347 351 352 352 355 358 358 356 356 360 357 361 353 353 347 346 351 354
299 302 301 300 302 306 310 311 310 311 312 314 318 338 348 350 350 351 353 355 355 353 356 357 353 350 347 341 344 351 358 360
299 301 300 300 300 305 308 310 311 311 312 314 318 332 345 347 348 350 350 353 352 353 359 359 353 351 345 345 351 353 355 356
295 299 301 300 299 301 306 310 311 313 314 316 317 326 340 344 347 350 349 350 351 356 358 358 355 360 361 357 354 351 351 350
296 294 291 300 292 300 303 306 310 311 313 314 317 326 341 340 339 346 348 350 351 353 356 355 363 360 358 350 347 360 346 342
Wind_Speed
8 18 21 20 22 21 13 10 7 4 6 3 7 5 8 12 15 19 19 18 18 16 16 18 18 18 17 17 16 15 14 14
16 22 26 29 25 18 13 10 10 9 3 8 8 8 7 12 18 18 19 19 19 17 17 17 18 18 17 17 16 15 14 14
19 26 26 24 29 21 11 14 16 12 9 8 9 12 13 16 16 18 19 19 18 16 16 17 18 18 16 17 16 15 14 14
22 25 27 26 21 29 12 17 16 15 11 8 13 14 15 17 17 17 18 19 19 16 16 16 16 16 16 16 16 15 14 12
25 22 27 26 25 16 13 18 17 9 17 9 14 14 15 17 17 15 17 18 17 16 15 14 15 15 16 15 15 14 13 13
24 22 26 21 24 18 22 22 18 8 8 15 14 15 17 18 18 17 17 17 17 15 15 15 14 14 15 15 14 14 13 12
27 26 22 20 21 14 20 21 22 16 12 18 14 16 17 18 17 16 15 17 17 19 17 16 17 13 14 15 14 13 12 10
25 21 24 26 18 16 21 21 22 12 13 17 13 15 19 20 19 20 19 19 18 17 17 16 13 15 13 12 11 10 10 10
25 25 22 18 23 13 21 21 20 20 15 19 13 13 17 18 21 22 21 16 17 14 15 17 15 11 8 8 7 7 9 8
28 22 18 19 16 18 22 24 16 23 16 21 18 16 16 18 18 19 21 20 19 17 11 13 12 11 11 9 8 7 8 7
20 20 18 18 19 21 20 12 5 9 3 16 15 17 15 17 16 18 19 18 18 17 14 9 10 9 9 8 7 8 8 8
21 22 23 15 20 22 18 19 14 9 7 10 17 14 16 17 17 17 16 15 17 18 11 13 9 9 7 6 7 7 7 8
26 21 26 20 21 27 23 20 16 11 12 14 15 20 16 16 18 17 13 15 15 17 15 12 11 10 7 8 9 7 6 6
23 25 22 22 25 25 24 23 25 19 13 11 12 17 16 14 11 12 12 12 14 13 12 13 11 8 8 8 6 5 5 7
25 29 27 27 21 23 26 23 20 19 16 14 10 11 16 14 11 13 14 15 15 16 16 13 13 10 8 9 5 5 5 5
23 23 27 30 24 23 24 29 24 20 21 17 16 16 15 16 13 13 16 16 16 12 12 10 9 6 7 8 6 6 4 4
12 17 22 22 25 25 16 20 21 23 17 17 16 14 18 14 16 15 15 17 17 16 16 11 10 8 8 9 8 6 3 5
15 10 7 15 23 26 25 19 19 20 22 22 18 16 14 19 18 17 15 18 17 16 15 11 9 7 8 8 8 7 6 6
17 11 16 15 18 22 26 22 22 18 22 18 18 20 19 18 19 21 21 21 18 16 14 12 12 7 6 9 6 7 7 7
14 11 13 20 13 23 25 25 24 22 18 21 20 22 23 13 14 19 21 19 20 17 15 12 11 11 11 9 9 3 7 8
Wind_Direction
225 230 238 245 219 243 185 202 176 180 251 177 87 86 146 107 143 135 142 153 128 135 134 135 134 128 128 124 125 129 130 129
246 233 226 246 260 207 206 169 196 247 238 94 62 136 132 142 144 138 148 148 131 133 135 135 131 129 126 126 130 128 129 128
231 238 246 224 248 268 208 216 199 189 236 110 123 107 136 147 149 160 154 134 140 134 136 135 133 130 130 130 128 126 127 132
230 233 237 245 233 248 221 243 212 156 228 95 124 141 146 152 155 162 147 133 137 134 133 133 132 130 132 130 129 128 129 131
245 235 237 227 242 239 237 247 227 187 191 128 164 139 149 155 158 151 142 142 148 148 134 127 131 132 132 130 128 127 132 134
241 244 250 225 227 197 240 241 252 166 224 180 140 146 149 157 159 150 147 141 150 147 153 157 146 130 129 129 132 133 136 139
242 237 248 250 208 219 237 246 241 170 248 96 132 156 157 157 157 156 161 151 160 156 157 156 141 135 130 135 136 135 143 152
247 252 249 247 242 205 227 226 241 225 125 109 146 169 167 167 166 167 169 166 159 158 158 146 148 153 156 153 166 174 173 174
251 262 269 251 247 218 239 223 220 219 177 148 160 180 181 178 171 171 169 170 158 151 173 155 137 169 156 168 168 165 154 190
269 271 265 273 256 214 233 230 217 225 226 158 167 183 186 180 177 170 162 170 159 145 168 168 142 178 165 178 165 165 167 182
253 263 274 249 260 267 232 235 192 87 203 155 173 185 189 183 181 166 161 164 166 155 172 154 157 163 170 152 175 153 154 184
253 241 255 245 244 250 246 220 218 157 215 206 175 205 187 186 179 169 158 156 155 160 167 158 173 136 145 158 138 172 172 165
238 234 242 234 241 238 236 234 234 194 215 203 197 187 189 194 173 169 150 166 157 161 163 157 151 152 167 168 165 184 159 145
234 234 238 235 240 228 237 226 210 198 202 196 205 193 180 170 164 129 135 146 154 148 162 174 145 169 187 149 190 171 154 157
247 209 223 225 234 253 209 227 224 197 209 196 209 196 168 131 138 130 139 159 171 159 167 174 157 170 180 130 186 167 169 170
223 227 207 225 224 246 224 205 218 218 213 206 194 181 162 139 152 148 151 158 165 148 160 191 152 170 156 176 163 161 158 152
241 218 205 220 225 224 240 220 213 208 214 209 190 176 140 140 154 153 161 160 158 163 168 182 159 185 157 169 165 144 133 171
280 270 228 237 218 230 214 232 213 213 208 202 177 183 163 148 164 153 162 159 165 162 168 161 175 178 177 171 125 171 143 99
264 238 231 249 236 224 225 213 227 216 205 191 191 170 177 159 160 163 167 164 160 156 161 174 173 134 98 104 125 168 145 112
286 269 242 203 231 214 213 214 214 209 214 195 199 176 159 151 156 176 165 161 157 152 161 168 165 151 156 169 176 163 88 89